Aérodrome :
LOGIN :

S'inscrire | Disclaimer

   EN    FR    IT 

 










Légende :    VFR   VFR Marginal   IFR   IFR Intensif   IFR Très Intensif
Visi : 
Plafond : 
>= 8 km
>= 3000ft
5 à 8 km
1000 à 3000 ft
1500m à 5 km
500 à 1000 ft
800 à 1500m
200 à 500 ft
< 800m
< 200 ft
Symboles :   Orages  Brouillard  Fortes neiges  Fortes précipitations  Vent > 20 kt
SIGMETs :   Divers  Orages  Givrage  Turbulence  Onde Orograph.  Cendres Volcan.







- Altitude de l'aérodrome : 100 ft


EBDT - Schaffen

DERNIER METAR :
  • 191755Z AUTO 28006KT 9999 SCT048/// BKN075/// BKN090/// 17/09 Q1019 BLU

METARs EXPIRÉS :
  • 191725Z AUTO 28006KT 9999 FEW080/// BKN095/// 17/10 Q1019 BLU
  • 191655Z AUTO 26004KT 9999 NCD 18/12 Q1019 BLU
  • 191625Z AUTO 23004KT 9999 FEW037/// SCT065/// BKN090/// 18/14 Q1019 BLU
  • 191555Z AUTO 26004KT 9999 FEW028/// SCT048/// OVC080/// 17/14 Q1019 BLU

Prévision TAF périmée.
Pas de NOTAMs connus pour ce terrain.



MET'MAP, la Météo Aéronautique d'un coup d'oeil ! - Copyright ORBIFLY Décembre 2007 - Disclaimer

ORBIFLY MET'MAP TEAM :

Programmation & Développement : Alexandra Zaïnal
Conception & Développement : Baudouin d'Aumeries
Co-Programmation & Développement : Marc-Olivier Méhu
Soutien technique & logistique : Manuel Goepfert

Contact : metmap@orbifly.com




SOURCES & CREDITS :

   NOAA